Weather History for KRDU - October, 2013

Change the Weather History Date:

Wednesday, October 16, 2013

  Actual Average Record
Temperature  
Mean Temperature 66 °F 61 °F  
Max Temperature 70 °F 73 °F 86 °F (1925)
Min Temperature 61 °F 50 °F 32 °F (1945)
Degree Days  
Heating Degree Days 0 5  
Month to date heating degree days 27 59  
Since 1 July heating degree days 38 80  
Cooling Degree Days 1 1  
Month to date cooling degree days 49 38  
Year to date cooling degree days 1544 1706  
Growing Degree Days 16 (Base 50)    
Moisture  
Dew Point 60 °F    
Average Humidity 87    
Maximum Humidity 100    
Minimum Humidity 73    
Precipitation  
Precipitation T in 0.11 in 2.26 in (1932)
Month to date precipitation 1.40 1.74  
Year to date precipitation 41.78 35.64  
Sea Level Pressure  
Sea Level Pressure 30.03 in    
Wind  
Wind Speed 1 mph (North)    
Max Wind Speed 6 mph    
Max Gust Speed 10 mph    
Visibility 10 miles    
Events      
T = Trace of Precipitation, MM = Missing Value Source: NWS Daily Summary

Daily Weather History Graph

Daily Weather History Graph

Search for Another Location

Airport or City:

Trip Planner

Search our weather history database for the weather conditions in past years. The results will help you decide how hot, cold, wet, or windy it might be!

Date:

Astronomy

Oct. 16, 2013 Rise Set
Actual Time 7:22 AM EDT 6:37 PM EDT
Civil Twilight 6:57 AM EDT 7:03 PM EDT
Nautical Twilight 6:27 AM EDT 7:33 PM EDT
Astronomical Twilight 5:57 AM EDT 8:02 PM EDT
Moon 5:13 PM EDT (10/16) 4:53 AM EDT (10/16)
Length of Visible Light 12h 06m
Length of Day
11h 14m
Waxing Gibbous, 94% of the Moon is Illuminated
Oct 16
Waxing Gibbous
Oct 18
Full
Oct 26
Last Quarter
Nov 3
New
Nov 10
First Quarter

Hourly Weather History & Observations

Time (EDT) Temp. Dew Point Humidity Pressure Visibility Wind Dir Wind Speed Gust Speed Precip Events Conditions
12:51 AM 64.0 °F 61.0 °F 90% 30.07 in 10.0 mi NNE 3.5 mph - N/A   Overcast
1:51 AM 63.0 °F 61.0 °F 93% 30.06 in 10.0 mi NNE 3.5 mph - 0.00 in   Overcast
2:51 AM 63.0 °F 61.0 °F 93% 30.06 in 9.0 mi Calm Calm - N/A   Overcast
3:51 AM 63.0 °F 61.0 °F 93% 30.05 in 10.0 mi Calm Calm - N/A   Overcast
4:51 AM 63.0 °F 61.0 °F 93% 30.04 in 10.0 mi NNE 3.5 mph - N/A   Overcast
5:36 AM 62.6 °F 60.8 °F 94% 30.04 in 4.0 mi NNE 3.5 mph - 0.00 in   Light Drizzle
5:51 AM 63.0 °F 61.0 °F 93% 30.05 in 6.0 mi Calm Calm - 0.00 in   Light Drizzle
6:22 AM 62.6 °F 60.8 °F 94% 30.05 in 9.0 mi NE 4.6 mph - 0.00 in   Overcast
6:51 AM 63.0 °F 61.0 °F 93% 30.05 in 10.0 mi NNE 3.5 mph - 0.00 in   Overcast
7:51 AM 63.0 °F 61.0 °F 93% 30.06 in 10.0 mi Calm Calm - 0.00 in   Overcast
8:51 AM 64.0 °F 60.1 °F 87% 30.07 in 10.0 mi Calm Calm - N/A   Overcast
9:51 AM 64.9 °F 61.0 °F 87% 30.06 in 10.0 mi North 4.6 mph - N/A   Overcast
10:51 AM 66.0 °F 60.1 °F 81% 30.05 in 10.0 mi North 4.6 mph - N/A   Overcast
11:51 AM 66.9 °F 60.1 °F 79% 30.04 in 10.0 mi Calm Calm - N/A   Overcast
12:51 PM 66.9 °F 60.1 °F 79% 30.04 in 10.0 mi West 3.5 mph - N/A   Overcast
1:51 PM 68.0 °F 60.1 °F 76% 30.01 in 10.0 mi Calm Calm - N/A   Overcast
2:51 PM 68.0 °F 60.1 °F 76% 29.99 in 10.0 mi Calm Calm - N/A   Overcast
3:51 PM 69.1 °F 60.1 °F 73% 29.99 in 10.0 mi Calm Calm - N/A   Mostly Cloudy
4:51 PM 68.0 °F 60.1 °F 76% 29.99 in 10.0 mi West 3.5 mph - N/A   Mostly Cloudy
5:19 PM 69.8 °F 60.8 °F 73% 29.98 in 10.0 mi Calm Calm - N/A   Mostly Cloudy
5:51 PM 70.0 °F 60.1 °F 71% 29.97 in 10.0 mi Calm Calm - N/A   Scattered Clouds
6:51 PM 64.0 °F 60.1 °F 87% 29.97 in 10.0 mi Calm Calm - N/A   Scattered Clouds
7:51 PM 62.1 °F 60.1 °F 93% 29.99 in 10.0 mi Calm Calm - N/A   Mostly Cloudy
8:51 PM 63.0 °F 60.1 °F 90% 30.00 in 10.0 mi Calm Calm - N/A   Mostly Cloudy
9:51 PM 61.0 °F 60.1 °F 97% 30.00 in 10.0 mi Calm Calm - N/A   Mostly Cloudy
10:51 PM 61.0 °F 59.0 °F 93% 30.00 in 9.0 mi Calm Calm - N/A   Mostly Cloudy
11:51 PM 61.0 °F 59.0 °F 93% 29.99 in 10.0 mi Calm Calm - N/A   Mostly Cloudy